Regional Weather Roundup
Issued by NWS

Home | Current Version | Previous Version | Text Only | Print | Product List | Glossary Off
Versions: 1 2 3 4 5 6 7 8 9 10 11 12 13 14 15 16 17 18 19 20 21 22 23 24 25 26 27 28 29 30 31 32 33 34 35 36 37 38 39 40 41 42 43 44 45 46 47 48 49

000
ASUS45 KBOU 310607
RWRCO

WEATHER ROUNDUP FOR COLORADO
NATIONAL WEATHER SERVICE DENVER/BOULDER CO
1200 AM MDT MON AUG 31 2015

NOTE: "FAIR" INDICATES FEW OR NO CLOUDS BELOW 12000 FEET WITH NO
SIGNIFICANT WEATHER AND/OR OBSTRUCTIONS TO VISIBILITY.

COZ001>005-013-030-031-310700-
...NORTHWEST COLORADO...

CITY           SKY/WX    TMP DP  RH WIND       PRES   REMARKS
CRAIG          CLOUDY    63  48  58 S29G37    30.15S
HAYDEN         NOT AVBL
MEEKER         NOT AVBL
MOUNT WERNER   NOT AVBL
STEAMBOAT SPGS CLOUDY    57  52  83 SE8       30.26S
WALDEN         CLOUDY    54  45  71 SW7       30.30R
$$

COZ006>008-011-310700-
...WEST CENTRAL VALLEYS...

CITY           SKY/WX    TMP DP  RH WIND       PRES   REMARKS
GRAND JUNCTION LGT RAIN  62  60  93 E14       30.15F
MONTROSE       MOCLDY    61  58  90 CALM      30.22R
EAGLE          CLOUDY    61  54  77 SW14      30.31R
RIFLE          LGT RAIN  61  58  90 S7        30.25S
DELTA          LGT RAIN  69  55  62 E5        30.18R
NUCLA          MOCLDY    68  50  52 E7        30.21S
$$

COZ017>023-064>068-310700-
...SOUTHWEST COLORADO...

CITY           SKY/WX    TMP DP  RH WIND       PRES   REMARKS
DURANGO        MOCLDY    64  46  52 CALM      30.22S
CORTEZ         CLOUDY    62  54  74 CALM      30.16F
PAGOSA SPRINGS CLOUDY    63  45  51 CALM      30.31R
TELLURIDE      CLOUDY    58  47  68 CALM      30.41S
WOLF CREEK PAS MOCLDY    45  41  87 SW14G21   30.61S
$$

COZ009-010-012-014-032>034-037-058>063-310700-
...CENTRAL COLORADO...

CITY           SKY/WX    TMP DP  RH WIND       PRES   REMARKS
ASPEN          RAIN      54  52  93 N5        30.36F
BUENA VISTA    MOCLDY    66  38  36 W17G32    30.26S
COPPER MTN     CLOUDY    52  41  66 W25G37    30.58R
BERTHOUD PASS  MOCLDY    43  32  65 NW20G26   30.60F
COTTONWOOD PAS MOCLDY    61  37  41 SW28G37   30.41R
GUNNISON       CLOUDY    57  46  67 E5        30.33S
KREMMLING      CLOUDY    61  45  55 SW3       30.29R
LEADVILLE      CLOUDY    53  40  61 N6        30.44R
MONARCH PASS   MOCLDY    46  37  71 W22       30.68R
SALIDA         MOCLDY    68  42  38 W10       30.31R
SUNLIGHT       CLOUDY    46  46 100 CALM      30.55S
WILKERSON PASS MOCLDY    54  32  43 W5        30.53S
$$

COZ069>075-310700-
...SAN LUIS VALLEY/SANGRE DE CRISTO MOUNTAINS...

CITY           SKY/WX    TMP DP  RH WIND       PRES   REMARKS
ALAMOSA        MOCLDY    55  44  66 E3        30.24R
LA VETA PASS   CLEAR     55  34  44 MISG      30.42S
SAGUACHE       PTCLDY    61  41  48 NW12      30.28S
$$

COZ035-036-038>040-310700-
...NORTHERN COLORADO FRONT RANGE...

CITY           SKY/WX    TMP DP  RH WIND       PRES   REMARKS
DENVER INTL AP MOCLDY    78  44  29 S18G24    30.00F
DMNS CITY PARK   N/A     70  48  44 NW3       30.00S
AURORA         MOCLDY    74  46  36 S10       30.03F
FRONT RANGE AP NOT AVBL
ERIE MUNI ARPT MOCLDY    76  42  29 N3        29.99S
BOULDER MUN AP MOCLDY    77  43  29 CALM      30.01R
CENTENNIAL     PTCLDY    68  43  40 S6        30.05R
BROOMFIELD     MOCLDY    77  41  27 NW9       30.04R
FORT COLLINS   CLOUDY    75  46  35 NE10      29.99R
LONGMONT       CLOUDY    75  46  35 E6        30.01R
$$

COZ041-046-047-076>085-087-088-310700-
...PIKES PEAK/PALMER DIVIDE AND SOUTHERN FOOTHILLS...

CITY           SKY/WX    TMP DP  RH WIND       PRES   REMARKS
COLO. SPRINGS  PTCLDY    65  47  52 NE8       30.09F
A. F. ACADEMY  PTCLDY    60  46  59 N8        30.12S
ELLICOTT       NOT AVBL
FALCON         PTCLDY    62  48  60 MISG      30.16S
FORT CARSON    PTCLDY    64  47  53 NW10      30.05S
LIMON          CLEAR     60  47  61 SE9       30.04F
MONUMENT HILL  PTCLDY    61  45  55 SW7       30.15F
TRINIDAD       CLEAR     73  50  44 W12       30.07R
$$

COZ042>045-048>051-090-091-310700-
...NORTHEAST COLORADO...

CITY           SKY/WX    TMP DP  RH WIND       PRES   REMARKS
GREELEY ARPT   MOCLDY    75  45  33 N12       29.98S
AKRON          CLEAR     71  47  42 S17G25    29.97S
BURLINGTON     CLEAR     65  47  52 S14       30.01S
WRAY           CLEAR     73  39  29 S16G23    29.95R
STERLING       CLEAR     72  50  46 SW7       29.92R
HOLYOKE        CLEAR     68  43  40 S7        29.95R
FORT MORGAN    CLEAR     72  48  42 W5        29.97R
$$

COZ086-089-092>099-310700-
...SOUTHEAST COLORADO...

CITY           SKY/WX    TMP DP  RH WIND       PRES   REMARKS
PUEBLO         CLEAR     73  47  39 E8        29.95S
LA JUNTA       CLEAR     79  51  37 S7        29.94S
LAMAR          CLEAR     68  51  54 E9        29.94R HAZE
SPRINGFIELD    NOT AVBL
$$



USA.gov is the U.S. government's official web portal to all federal, state and local government web resources and services.